Terminal Aerodrome Forecast
Issued by NWS Spokane, WA

Home | Current Version | Previous Version | Text Only | Print | Product List | Glossary On
Versions: 1 2 3 4 5 6 7 8 9 10 11 12 13 14 15 16 17 18 19 20 21 22 23 24 25 26 27 28 29 30 31 32 33 34 35 36 37 38
000
FTUS46 KOTX 260645 AAA
TAFEAT
TAF AMD
KEAT 260645Z 2607/2706 30003KT 1SM -RA BR SCT002 OVC005
      TEMPO 2607/2610 1/2SM FG OVC002
     FM261000 VRB02KT 1SM BR OVC002
     FM261200 30002KT 3SM BR OVC001
     FM262000 28004KT P6SM OVC018=

USA.gov is the U.S. government's official web portal to all federal, state and local government web resources and services.